Time,TemperatureF,DewpointF,PressureIn,WindDirection,WindDirectionDegrees,WindSpeedMPH,WindSpeedGustMPH,Humidity,HourlyPrecipIn,Conditions,Clouds,dailyrainin,SoftwareType,DateUTC
2013-01-23 00:23:00,10.0,-99.9,30.21,South,182,-999.0,5.0,-999,-99.99,,,-99.99,,2013-01-23 05:23:00,
2013-01-23 00:33:00,10.0,-99.9,30.21,South,182,-999.0,5.0,-999,-99.99,,,-99.99,,2013-01-23 05:33:00,
2013-01-23 00:43:00,10.0,-99.9,30.21,South,182,-999.0,5.0,-999,-99.99,,,-99.99,,2013-01-23 05:43:00,
2013-01-23 00:53:00,9.0,-99.9,30.19,SW,229,-999.0,13.0,-999,-99.99,,,-99.99,,2013-01-23 05:53:00,
2013-01-23 01:23:00,9.0,-99.9,30.19,SW,229,-999.0,13.0,-999,-99.99,,,-99.99,,2013-01-23 06:23:00,
2013-01-23 01:33:00,9.0,-99.9,30.19,SW,229,-999.0,13.0,-999,-99.99,,,-99.99,,2013-01-23 06:33:00,
2013-01-23 01:43:00,9.0,-99.9,30.19,SW,229,-999.0,13.0,-999,-99.99,,,-99.99,,2013-01-23 06:43:00,
2013-01-23 01:53:00,9.0,-99.9,30.21,SSW,196,-999.0,-999.0,-999,-99.99,,,-99.99,,2013-01-23 06:53:00,
2013-01-23 02:23:00,9.0,-99.9,30.21,SSW,196,-999.0,-999.0,-999,-99.99,,,-99.99,,2013-01-23 07:23:00,
2013-01-23 02:33:00,9.0,-99.9,30.21,SSW,196,-999.0,-999.0,-999,-99.99,,,-99.99,,2013-01-23 07:33:00,
2013-01-23 02:43:00,9.0,-99.9,30.21,SSW,196,-999.0,-999.0,-999,-99.99,,,-99.99,,2013-01-23 07:43:00,
2013-01-23 02:53:00,9.0,-99.9,30.22,SSW,200,-999.0,-999.0,-999,-99.99,,,-99.99,,2013-01-23 07:53:00,
2013-01-23 03:23:00,9.0,-99.9,30.22,SSW,200,-999.0,-999.0,-999,-99.99,,,-99.99,,2013-01-23 08:23:00,
2013-01-23 03:33:00,9.0,-99.9,30.22,SSW,200,-999.0,-999.0,-999,-99.99,,,-99.99,,2013-01-23 08:33:00,
2013-01-23 03:43:00,9.0,-99.9,30.22,SSW,200,-999.0,-999.0,-999,-99.99,,,-99.99,,2013-01-23 08:43:00,
2013-01-23 03:53:00,8.0,-99.9,30.22,SSW,198,-999.0,-999.0,-999,-99.99,,,-99.99,,2013-01-23 08:53:00,
2013-01-23 04:23:00,8.0,-99.9,30.22,SSW,198,-999.0,-999.0,-999,-99.99,,,-99.99,,2013-01-23 09:23:00,
2013-01-23 04:33:00,8.0,-99.9,30.22,SSW,198,-999.0,-999.0,-999,-99.99,,,-99.99,,2013-01-23 09:33:00,
2013-01-23 04:44:00,8.0,-99.9,30.22,SSW,198,-999.0,-999.0,-999,-99.99,,,-99.99,,2013-01-23 09:44:00,
2013-01-23 04:53:00,7.0,-99.9,30.22,SSW,198,-999.0,-999.0,-999,-99.99,,,-99.99,,2013-01-23 09:53:00,
2013-01-23 05:23:00,7.0,-99.9,30.22,SSW,198,-999.0,-999.0,-999,-99.99,,,-99.99,,2013-01-23 10:23:00,
2013-01-23 05:33:00,7.0,-99.9,30.22,SSW,198,-999.0,-999.0,-999,-99.99,,,-99.99,,2013-01-23 10:33:00,
2013-01-23 05:43:00,7.0,-99.9,30.22,SSW,198,-999.0,-999.0,-999,-99.99,,,-99.99,,2013-01-23 10:43:00,
2013-01-23 05:53:00,7.0,-99.9,30.22,SSW,198,-999.0,-999.0,-999,-99.99,,,-99.99,,2013-01-23 10:53:00,
2013-01-23 06:23:00,7.0,-99.9,30.22,SSW,198,-999.0,-999.0,-999,-99.99,,,-99.99,,2013-01-23 11:23:00,
2013-01-23 06:34:00,7.0,-99.9,30.22,SSW,198,-999.0,-999.0,-999,-99.99,,,-99.99,,2013-01-23 11:34:00,
2013-01-23 06:43:00,7.0,-99.9,30.22,SSW,198,-999.0,-999.0,-999,-99.99,,,-99.99,,2013-01-23 11:43:00,
2013-01-23 07:53:00,8.0,-99.9,30.23,WSW,243,-999.0,4.0,-999,-99.99,,,-99.99,,2013-01-23 12:53:00,
2013-01-23 08:23:00,8.0,-99.9,30.23,WSW,243,-999.0,4.0,-999,-99.99,,,-99.99,,2013-01-23 13:23:00,
2013-01-23 08:34:00,8.0,-99.9,30.23,WSW,243,-999.0,4.0,-999,-99.99,,,-99.99,,2013-01-23 13:34:00,
2013-01-23 08:43:00,8.0,-99.9,30.23,WSW,243,-999.0,4.0,-999,-99.99,,,-99.99,,2013-01-23 13:43:00,
2013-01-23 08:53:00,13.0,-99.9,30.24,ESE,103,4.0,13.0,-999,-99.99,,,-99.99,,2013-01-23 13:53:00,
2013-01-23 09:24:00,13.0,-99.9,30.24,ESE,103,4.0,13.0,-999,-99.99,,,-99.99,,2013-01-23 14:24:00,
2013-01-23 09:33:00,13.0,-99.9,30.24,ESE,103,4.0,13.0,-999,-99.99,,,-99.99,,2013-01-23 14:33:00,
2013-01-23 09:43:00,13.0,-99.9,30.24,ESE,103,4.0,13.0,-999,-99.99,,,-99.99,,2013-01-23 14:43:00,
2013-01-23 09:53:00,14.0,-99.9,30.25,South,190,5.0,9.0,-999,-99.99,,,-99.99,,2013-01-23 14:53:00,
2013-01-23 10:23:00,14.0,-99.9,30.25,South,190,5.0,9.0,-999,-99.99,,,-99.99,,2013-01-23 15:23:00,
2013-01-23 10:33:00,14.0,-99.9,30.25,South,190,5.0,9.0,-999,-99.99,,,-99.99,,2013-01-23 15:33:00,
2013-01-23 10:44:00,14.0,-99.9,30.25,South,190,5.0,9.0,-999,-99.99,,,-99.99,,2013-01-23 15:44:00,
2013-01-23 10:53:00,16.0,-99.9,30.24,ESE,107,-999.0,8.0,-999,-99.99,,,-99.99,,2013-01-23 15:53:00,
2013-01-23 11:23:00,16.0,-99.9,30.24,ESE,107,-999.0,8.0,-999,-99.99,,,-99.99,,2013-01-23 16:23:00,
2013-01-23 11:33:00,16.0,-99.9,30.24,ESE,107,-999.0,8.0,-999,-99.99,,,-99.99,,2013-01-23 16:33:00,
2013-01-23 11:43:00,16.0,-99.9,30.24,ESE,107,-999.0,8.0,-999,-99.99,,,-99.99,,2013-01-23 16:43:00,
2013-01-23 11:53:00,15.0,-99.9,30.21,SSW,198,-999.0,9.0,-999,-99.99,,,-99.99,,2013-01-23 16:53:00,
2013-01-23 12:23:00,15.0,-99.9,30.21,SSW,198,-999.0,9.0,-999,-99.99,,,-99.99,,2013-01-23 17:23:00,
2013-01-23 12:34:00,15.0,-99.9,30.21,SSW,198,-999.0,9.0,-999,-99.99,,,-99.99,,2013-01-23 17:34:00,
2013-01-23 12:43:00,15.0,-99.9,30.21,SSW,198,-999.0,9.0,-999,-99.99,,,-99.99,,2013-01-23 17:43:00,
2013-01-23 12:53:00,19.0,-99.9,30.18,SW,229,3.0,11.0,-999,-99.99,,,-99.99,,2013-01-23 17:53:00,
2013-01-23 13:33:00,19.0,-99.9,30.18,SW,229,3.0,11.0,-999,-99.99,,,-99.99,,2013-01-23 18:33:00,
2013-01-23 13:44:00,19.0,-99.9,30.18,SW,229,3.0,11.0,-999,-99.99,,,-99.99,,2013-01-23 18:44:00,
2013-01-23 13:53:00,18.0,-99.9,30.17,ENE,64,-999.0,3.0,-999,-99.99,,,-99.99,,2013-01-23 18:53:00,
2013-01-23 14:23:00,18.0,-99.9,30.17,ENE,64,-999.0,3.0,-999,-99.99,,,-99.99,,2013-01-23 19:23:00,
2013-01-23 14:33:00,18.0,-99.9,30.17,ENE,64,-999.0,3.0,-999,-99.99,,,-99.99,,2013-01-23 19:33:00,
2013-01-23 14:43:00,18.0,-99.9,30.17,ENE,64,-999.0,3.0,-999,-99.99,,,-99.99,,2013-01-23 19:43:00,
2013-01-23 14:53:00,17.0,-99.9,30.18,ENE,74,-999.0,8.0,-999,-99.99,,,-99.99,,2013-01-23 19:53:00,
2013-01-23 15:23:00,17.0,-99.9,30.18,ENE,74,-999.0,8.0,-999,-99.99,,,-99.99,,2013-01-23 20:23:00,
2013-01-23 15:33:00,17.0,-99.9,30.18,ENE,74,-999.0,8.0,-999,-99.99,,,-99.99,,2013-01-23 20:33:00,
2013-01-23 15:43:00,17.0,-99.9,30.18,ENE,74,-999.0,8.0,-999,-99.99,,,-99.99,,2013-01-23 20:43:00,
2013-01-23 15:53:00,17.0,-99.9,30.18,North,11,-999.0,9.0,-999,-99.99,,,-99.99,,2013-01-23 20:53:00,
2013-01-23 16:23:00,17.0,-99.9,30.18,North,11,-999.0,9.0,-999,-99.99,,,-99.99,,2013-01-23 21:23:00,
2013-01-23 16:34:00,17.0,-99.9,30.18,North,11,-999.0,9.0,-999,-99.99,,,-99.99,,2013-01-23 21:34:00,
2013-01-23 16:43:00,17.0,-99.9,30.18,North,11,-999.0,9.0,-999,-99.99,,,-99.99,,2013-01-23 21:43:00,
2013-01-23 16:53:00,15.0,-99.9,30.18,SE,146,-999.0,5.0,-999,-99.99,,,-99.99,,2013-01-23 21:53:00,
2013-01-23 17:23:00,15.0,-99.9,30.18,SE,146,-999.0,5.0,-999,-99.99,,,-99.99,,2013-01-23 22:23:00,
2013-01-23 17:33:00,15.0,-99.9,30.18,SE,146,-999.0,5.0,-999,-99.99,,,-99.99,,2013-01-23 22:33:00,
2013-01-23 17:43:00,15.0,-99.9,30.18,SE,146,-999.0,5.0,-999,-99.99,,,-99.99,,2013-01-23 22:43:00,
2013-01-23 17:53:00,12.0,-99.9,30.19,SE,146,-999.0,-999.0,-999,-99.99,,,-99.99,,2013-01-23 22:53:00,
2013-01-23 18:23:00,12.0,-99.9,30.19,SE,146,-999.0,-999.0,-999,-99.99,,,-99.99,,2013-01-23 23:23:00,
2013-01-23 18:33:00,12.0,-99.9,30.19,SE,146,-999.0,-999.0,-999,-99.99,,,-99.99,,2013-01-23 23:33:00,
2013-01-23 18:43:00,12.0,-99.9,30.19,SE,146,-999.0,-999.0,-999,-99.99,,,-99.99,,2013-01-23 23:43:00,
2013-01-23 18:53:00,10.0,-99.9,30.20,SE,146,-999.0,-999.0,-999,-99.99,,,-99.99,,2013-01-23 23:53:00,
2013-01-23 19:22:00,10.0,-99.9,30.20,SE,146,-999.0,-999.0,-999,-99.99,,,-99.99,,2013-01-24 00:22:00,
2013-01-23 19:33:00,10.0,-99.9,30.20,SE,146,-999.0,-999.0,-999,-99.99,,,-99.99,,2013-01-24 00:33:00,
2013-01-23 19:43:00,10.0,-99.9,30.20,SE,146,-999.0,-999.0,-999,-99.99,,,-99.99,,2013-01-24 00:43:00,
2013-01-23 19:53:00,8.0,-99.9,30.19,SE,146,-999.0,-999.0,-999,-99.99,,,-99.99,,2013-01-24 00:53:00,
2013-01-23 20:23:00,8.0,-99.9,30.19,SE,146,-999.0,-999.0,-999,-99.99,,,-99.99,,2013-01-24 01:23:00,
2013-01-23 20:33:00,8.0,-99.9,30.19,SE,146,-999.0,-999.0,-999,-99.99,,,-99.99,,2013-01-24 01:33:00,
2013-01-23 20:43:00,8.0,-99.9,30.19,SE,146,-999.0,-999.0,-999,-99.99,,,-99.99,,2013-01-24 01:43:00,
2013-01-23 20:53:00,6.0,-99.9,30.18,SE,146,-999.0,-999.0,-999,-99.99,,,-99.99,,2013-01-24 01:53:00,
2013-01-23 21:33:00,6.0,-99.9,30.18,SE,146,-999.0,-999.0,-999,-99.99,,,-99.99,,2013-01-24 02:33:00,
2013-01-23 21:43:00,6.0,-99.9,30.18,SE,146,-999.0,-999.0,-999,-99.99,,,-99.99,,2013-01-24 02:43:00,
2013-01-23 21:53:00,6.0,-99.9,30.19,SE,146,-999.0,-999.0,-999,-99.99,,,-99.99,,2013-01-24 02:53:00,
2013-01-23 22:33:00,6.0,-99.9,30.19,SE,146,-999.0,-999.0,-999,-99.99,,,-99.99,,2013-01-24 03:33:00,
2013-01-23 22:43:00,6.0,-99.9,30.19,SE,146,-999.0,-999.0,-999,-99.99,,,-99.99,,2013-01-24 03:43:00,
2013-01-23 22:53:00,5.0,-99.9,30.19,SE,146,-999.0,-999.0,-999,-99.99,,,-99.99,,2013-01-24 03:53:00,
2013-01-23 23:22:00,5.0,-99.9,30.19,SE,146,-999.0,-999.0,-999,-99.99,,,-99.99,,2013-01-24 04:22:00,
2013-01-23 23:33:00,5.0,-99.9,30.19,SE,146,-999.0,-999.0,-999,-99.99,,,-99.99,,2013-01-24 04:33:00,
2013-01-23 23:43:00,5.0,-99.9,30.19,SE,146,-999.0,-999.0,-999,-99.99,,,-99.99,,2013-01-24 04:43:00,
2013-01-23 23:53:00,6.0,-99.9,30.18,SE,146,-999.0,-999.0,-999,-99.99,,,-99.99,,2013-01-24 04:53:00,